When you browse on this site, cookies collect data to enhance your experience and personalize the content and advertising you see.
Visit our Privacy Policy to learn more. By continuing to use the site, you agree to this use of cookies and data.
  • In Spain
  • List of Countries
  • For 7 days
  • Water Temperature
  • Weather Map
  • Weather Widgets
  • user-avatar
    Login

    Hourly Weather Sharm el-Szeikh

    Today, 21 October, Monday

    Time Temperature Precipitation Wind Pressure Humidity
    00:00 +28°C° 0 mm 4 mps 756 mmHg 31%
    01:00 +27°C° 0 mm 4 mps 756 mmHg 31%
    02:00 +27°C° 0 mm 4 mps 755 mmHg 30%
    03:00 +26°C° 0 mm 4 mps 755 mmHg 31%
    04:00 +26°C° 0 mm 3 mps 756 mmHg 32%
    05:00 +26°C° 0 mm 3 mps 756 mmHg 34%
    06:00 +28°C° 0 mm 3 mps 756 mmHg 30%
    07:00 +30°C° 0 mm 3 mps 756 mmHg 26%
    08:00 +34°C° 0 mm 3 mps 756 mmHg 22%
    09:00 +35°C° 0 mm 3 mps 755 mmHg 22%
    10:00 +36°C° 0 mm 4 mps 755 mmHg 22%
    11:00 +37°C° 0 mm 4 mps 755 mmHg 21%
    12:00 +37°C° 0 mm 4 mps 755 mmHg 22%
    13:00 +37°C° 0 mm 3 mps 754 mmHg 22%
    14:00 +37°C° 0 mm 3 mps 753 mmHg 22%
    15:00 +35°C° 0 mm 4 mps 753 mmHg 24%
    16:00 +34°C° 0 mm 4 mps 753 mmHg 26%
    17:00 +32°C° 0 mm 4 mps 753 mmHg 28%
    18:00 +30°C° 0 mm 4 mps 753 mmHg 30%
    19:00 +29°C° 0 mm 4 mps 753 mmHg 32%
    20:00 +28°C° 0 mm 5 mps 753 mmHg 34%
    21:00 +27°C° 0 mm 4 mps 753 mmHg 36%
    22:00 +27°C° 0 mm 4 mps 753 mmHg 38%
    23:00 +26°C° 0 mm 3 mps 753 mmHg 39%

    Tomorrow, 22 October, Tuesday

    Time Temperature Precipitation Wind Pressure Humidity
    00:00 +26°C° 0 mm 3 mps 753 mmHg 39%
    01:00 +26°C° 0 mm 3 mps 753 mmHg 39%
    02:00 +25°C° 0 mm 3 mps 752 mmHg 39%
    03:00 +25°C° 0 mm 2 mps 752 mmHg 40%
    04:00 +25°C° 0 mm 2 mps 752 mmHg 40%
    05:00 +24°C° 0 mm 2 mps 753 mmHg 41%
    06:00 +27°C° 0 mm 2 mps 753 mmHg 36%
    07:00 +29°C° 0 mm 2 mps 753 mmHg 32%
    08:00 +32°C° 0 mm 2 mps 753 mmHg 27%
    09:00 +34°C° 0 mm 2 mps 753 mmHg 26%
    10:00 +35°C° 0 mm 3 mps 753 mmHg 25%
    11:00 +36°C° 0 mm 3 mps 753 mmHg 24%
    12:00 +37°C° 0 mm 2 mps 752 mmHg 23%
    13:00 +37°C° 0 mm 2 mps 752 mmHg 21%
    14:00 +37°C° 0 mm 1 mps 751 mmHg 20%
    15:00 +34°C° 0 mm 1 mps 751 mmHg 26%
    16:00 +32°C° 0 mm 2 mps 751 mmHg 31%
    17:00 +30°C° 0 mm 2 mps 751 mmHg 36%
    18:00 +30°C° 0 mm 2 mps 751 mmHg 39%
    19:00 +29°C° 0 mm 3 mps 752 mmHg 41%
    20:00 +28°C° 0 mm 3 mps 752 mmHg 43%
    21:00 +28°C° 0 mm 3 mps 752 mmHg 41%
    22:00 +28°C° 0 mm 2 mps 752 mmHg 38%
    23:00 +28°C° 0 mm 2 mps 752 mmHg 36%

    Day after tomorrow, 23 October, Wednesday

    Time Temperature Precipitation Wind Pressure Humidity
    00:00 +27°C° 0 mm 2 mps 752 mmHg 40%
    01:00 +26°C° 0 mm 3 mps 752 mmHg 45%
    02:00 +25°C° 0 mm 3 mps 751 mmHg 50%
    03:00 +25°C° 0 mm 3 mps 752 mmHg 50%
    04:00 +25°C° 0 mm 3 mps 752 mmHg 49%
    05:00 +25°C° 0 mm 4 mps 752 mmHg 49%
    06:00 +27°C° 0.1 mm 4 mps 752 mmHg 45%
    07:00 +29°C° 0.1 mm 4 mps 753 mmHg 41%
    08:00 +30°C° 0.1 mm 4 mps 753 mmHg 37%
    09:00 +32°C° 0 mm 4 mps 753 mmHg 34%
    10:00 +33°C° 0 mm 4 mps 753 mmHg 30%
    11:00 +35°C° 0 mm 5 mps 753 mmHg 27%
    12:00 +35°C° 0 mm 4 mps 752 mmHg 24%
    13:00 +36°C° 0 mm 4 mps 752 mmHg 22%
    14:00 +36°C° 0 mm 4 mps 751 mmHg 20%
    15:00 +35°C° 0 mm 4 mps 752 mmHg 25%
    16:00 +33°C° 0 mm 5 mps 752 mmHg 29%
    17:00 +32°C° 0 mm 5 mps 752 mmHg 34%
    18:00 +30°C° 0 mm 5 mps 752 mmHg 37%
    19:00 +28°C° 0 mm 5 mps 753 mmHg 40%
    20:00 +27°C° 0 mm 5 mps 753 mmHg 43%
    21:00 +27°C° 0 mm 5 mps 753 mmHg 45%
    22:00 +26°C° 0 mm 5 mps 753 mmHg 47%
    23:00 +25°C° 0 mm 5 mps 753 mmHg 49%

    24 October, Thursday

    Time Temperature Precipitation Wind Pressure Humidity
    00:00 +25°C° 0 mm 5 mps 753 mmHg 50%
    01:00 +23°C° 0 mm 5 mps 753 mmHg 51%
    02:00 +23°C° 0 mm 5 mps 753 mmHg 52%
    03:00 +22°C° 0 mm 5 mps 753 mmHg 54%
    04:00 +22°C° 0 mm 4 mps 753 mmHg 56%
    05:00 +21°C° 0 mm 4 mps 753 mmHg 58%
    06:00 +23°C° 0 mm 4 mps 753 mmHg 51%
    07:00 +27°C° 0 mm 4 mps 754 mmHg 44%
    08:00 +29°C° 0 mm 3 mps 754 mmHg 37%
    09:00 +30°C° 0 mm 3 mps 754 mmHg 35%
    10:00 +32°C° 0 mm 4 mps 754 mmHg 32%
    11:00 +33°C° 0 mm 4 mps 753 mmHg 30%
    12:00 +33°C° 0 mm 4 mps 753 mmHg 28%
    13:00 +34°C° 0 mm 4 mps 753 mmHg 27%
    14:00 +34°C° 0 mm 4 mps 752 mmHg 25%
    15:00 +32°C° 0 mm 4 mps 752 mmHg 28%
    16:00 +30°C° 0 mm 4 mps 752 mmHg 31%
    17:00 +28°C° 0 mm 3 mps 752 mmHg 33%
    18:00 +27°C° 0 mm 4 mps 753 mmHg 35%
    19:00 +26°C° 0 mm 4 mps 753 mmHg 37%
    20:00 +25°C° 0 mm 5 mps 754 mmHg 39%
    21:00 +25°C° 0 mm 5 mps 754 mmHg 39%
    22:00 +23°C° 0 mm 4 mps 754 mmHg 39%
    23:00 +23°C° 0 mm 4 mps 754 mmHg 40%

    25 October, Friday

    Time Temperature Precipitation Wind Pressure Humidity
    00:00 +22°C° 0 mm 4 mps 754 mmHg 42%
    01:00 +22°C° 0 mm 4 mps 754 mmHg 44%
    02:00 +21°C° 0 mm 4 mps 754 mmHg 46%
    03:00 +21°C° 0 mm 4 mps 754 mmHg 48%
    04:00 +21°C° 0 mm 4 mps 754 mmHg 49%
    05:00 +20°C° 0 mm 4 mps 754 mmHg 51%
    06:00 +22°C° 0 mm 4 mps 754 mmHg 45%
    07:00 +25°C° 0 mm 4 mps 755 mmHg 40%
    08:00 +27°C° 0 mm 4 mps 755 mmHg 34%
    09:00 +28°C° 0 mm 3 mps 755 mmHg 32%
    10:00 +30°C° 0 mm 3 mps 755 mmHg 30%
    11:00 +31°C° 0 mm 3 mps 755 mmHg 29%
    12:00 +31°C° 0 mm 3 mps 754 mmHg 30%
    13:00 +31°C° 0 mm 3 mps 754 mmHg 31%
    14:00 +32°C° 0 mm 4 mps 753 mmHg 32%
    15:00 +30°C° 0 mm 4 mps 754 mmHg 36%
    16:00 +29°C° 0 mm 4 mps 754 mmHg 40%
    17:00 +27°C° 0 mm 4 mps 754 mmHg 44%
    18:00 +27°C° 0 mm 4 mps 754 mmHg 45%
    19:00 +26°C° 0 mm 3 mps 754 mmHg 46%
    20:00 +25°C° 0 mm 3 mps 755 mmHg 47%
    21:00 +25°C° 0 mm 3 mps 755 mmHg 46%
    22:00 +24°C° 0 mm 3 mps 755 mmHg 45%
    23:00 +23°C° 0 mm 4 mps 755 mmHg 44%

    26 October, Saturday

    Time Temperature Precipitation Wind Pressure Humidity
    00:00 +24°C° 0 mm 3 mps 755 mmHg 45%
    01:00 +22°C° 0 mm 3 mps 755 mmHg 47%
    02:00 +22°C° 0 mm 3 mps 755 mmHg 48%
    03:00 +21°C° 0 mm 3 mps 755 mmHg 50%
    04:00 +21°C° 0 mm 3 mps 755 mmHg 52%
    05:00 +20°C° 0 mm 3 mps 755 mmHg 53%
    06:00 +22°C° 0 mm 3 mps 755 mmHg 48%
    07:00 +25°C° 0 mm 3 mps 756 mmHg 42%
    08:00 +27°C° 0 mm 3 mps 756 mmHg 36%
    09:00 +28°C° 0 mm 3 mps 756 mmHg 35%
    10:00 +29°C° 0 mm 3 mps 756 mmHg 34%
    11:00 +30°C° 0 mm 4 mps 756 mmHg 33%
    12:00 +31°C° 0 mm 3 mps 755 mmHg 33%
    13:00 +31°C° 0 mm 3 mps 754 mmHg 33%
    14:00 +31°C° 0 mm 3 mps 754 mmHg 34%
    15:00 +30°C° 0 mm 3 mps 754 mmHg 38%
    16:00 +28°C° 0 mm 3 mps 754 mmHg 43%
    17:00 +27°C° 0 mm 3 mps 754 mmHg 47%
    18:00 +26°C° 0 mm 3 mps 754 mmHg 48%
    19:00 +26°C° 0 mm 3 mps 754 mmHg 48%
    20:00 +25°C° 0 mm 3 mps 754 mmHg 49%
    21:00 +25°C° 0 mm 3 mps 755 mmHg 45%
    22:00 +25°C° 0 mm 3 mps 755 mmHg 41%
    23:00 +25°C° 0 mm 3 mps 755 mmHg 38%

    27 October, Sunday

    Time Temperature Precipitation Wind Pressure Humidity
    00:00 +24°C° 0 mm 3 mps 755 mmHg 37%
    01:00 +24°C° 0 mm 3 mps 754 mmHg 37%
    02:00 +22°C° 0 mm 4 mps 754 mmHg 37%
    03:00 +21°C° 0 mm 4 mps 754 mmHg 39%
    04:00 +21°C° 0 mm 4 mps 754 mmHg 40%
    05:00 +20°C° 0 mm 4 mps 755 mmHg 42%
    06:00 +23°C° 0 mm 4 mps 755 mmHg 38%
    07:00 +26°C° 0 mm 3 mps 755 mmHg 33%
    08:00 +28°C° 0 mm 3 mps 755 mmHg 29%
    09:00 +29°C° 0 mm 3 mps 755 mmHg 28%
    10:00 +30°C° 0 mm 4 mps 755 mmHg 28%
    11:00 +33°C° 0 mm 4 mps 755 mmHg 27%
    12:00 +33°C° 0 mm 4 mps 754 mmHg 28%
    13:00 +33°C° 0 mm 3 mps 754 mmHg 28%
    14:00 +34°C° 0 mm 3 mps 753 mmHg 28%
    15:00 +31°C° 0 mm 3 mps 753 mmHg 34%
    16:00 +29°C° 0 mm 3 mps 753 mmHg 39%
    17:00 +28°C° 0 mm 4 mps 753 mmHg 44%
    18:00 +27°C° 0 mm 3 mps 754 mmHg 45%
    19:00 +26°C° 0 mm 3 mps 754 mmHg 46%
    20:00 +25°C° 0 mm 3 mps 754 mmHg 46%
    21:00 +25°C° 0 mm 3 mps 754 mmHg 45%
    22:00 +25°C° 0 mm 3 mps 754 mmHg 44%
    23:00 +24°C° 0 mm 2 mps 754 mmHg 44%
    Show more